Weather History for KERI - July, 2013

Change the Weather History Date:

Thursday, July 18, 2013

  Actual Average Record
Temperature  
Mean Temperature 82 °F 72 °F  
Max Temperature 87 °F 80 °F 94 °F (1968)
Min Temperature 76 °F 64 °F 47 °F (1971)
Degree Days  
Heating Degree Days 0 0  
Month to date heating degree days 0 2  
Since 1 June heating degree days 68 63  
Since 1 July heating degree days 0 2  
Cooling Degree Days 17 7  
Month to date cooling degree days 184 124  
Year to date cooling degree days 387 286  
Since 1 June cooling degree days 302 247  
Growing Degree Days 31 (Base 50)    
Moisture  
Dew Point 72 °F    
Average Humidity 71    
Maximum Humidity 85    
Minimum Humidity 57    
Precipitation  
Precipitation 0.30 in 0.11 in 0.86 in (1968)
Month to date precipitation 2.56 1.97  
Year to date precipitation 27.07 20.79  
Snow  
Snow 0.00 in 0.00 in - ()
Month to date snowfall 0.0 0.0  
Since 1 June snowfall 0.0 0.0  
Since 1 July snowfall 0.0 0.0  
Snow Depth 0.00 in    
Sea Level Pressure  
Sea Level Pressure 30.08 in    
Wind  
Wind Speed 7 mph (SW)    
Max Wind Speed 16 mph    
Max Gust Speed 21 mph    
Visibility 9 miles    
Events Rain , Thunderstorm    
T = Trace of Precipitation, MM = Missing Value Source: NWS Daily Summary

Daily Weather History Graph

Daily Weather History Graph

Search for Another Location

Airport or City:

Trip Planner

Search our weather history database for the weather conditions in past years. The results will help you decide how hot, cold, wet, or windy it might be!

Date:

Astronomy

Jul. 18, 2013 Rise Set
Actual Time 6:00 AM EDT 8:52 PM EDT
Civil Twilight 5:27 AM EDT 9:25 PM EDT
Nautical Twilight 4:46 AM EDT 10:07 PM EDT
Astronomical Twilight 3:57 AM EDT 10:55 PM EDT
Moon 4:47 PM EDT (7/18) 1:51 AM EDT (7/18)
Length of Visible Light 15h 57m
Length of Day
14h 51m
Waxing Gibbous, 77% of the Moon is Illuminated
Jul 18
Waxing Gibbous
Jul 22
Full
Jul 29
Last Quarter
Aug 6
New
Aug 14
First Quarter

Hourly Weather History & Observations

Time (EDT) Temp. Heat Index Dew Point Humidity Pressure Visibility Wind Dir Wind Speed Gust Speed Precip Events Conditions
12:51 AM 80.1 °F 83.6 °F 71.1 °F 74% 30.15 in 10.0 mi South 5.8 mph - N/A   Clear
1:51 AM 79.0 °F - 71.1 °F 77% 30.13 in 10.0 mi South 4.6 mph - N/A   Clear
2:51 AM 78.1 °F - 71.1 °F 79% 30.12 in 10.0 mi South 4.6 mph - N/A   Clear
3:51 AM 78.1 °F - 71.1 °F 79% 30.12 in 10.0 mi SSW 4.6 mph - N/A   Scattered Clouds
4:51 AM 78.1 °F - 72.0 °F 81% 30.12 in 10.0 mi South 4.6 mph - N/A   Mostly Cloudy
5:49 AM 77.0 °F - 73.4 °F 89% 30.13 in 2.0 mi WSW 15.0 mph 19.6 mph 0.02 in Rain , Thunderstorm Heavy Thunderstorms and Rain
5:50 AM 77.0 °F - 73.0 °F 88% 30.12 in 1.5 mi WSW 13.8 mph 19.6 mph 0.03 in Rain , Thunderstorm Heavy Thunderstorms and Rain
5:59 AM 77.0 °F - 69.8 °F 78% 30.12 in 1.2 mi SSE 9.2 mph 18.4 mph 0.27 in Rain Light Rain
6:02 AM 75.2 °F - 71.6 °F 89% 30.13 in 10.0 mi SW 5.8 mph - 0.27 in Rain Light Rain
6:51 AM 77.0 °F - 73.0 °F 88% 30.12 in 10.0 mi SSW 5.8 mph - 0.27 in   Partly Cloudy
7:51 AM 79.0 °F - 73.9 °F 84% 30.12 in 7.0 mi SSW 5.8 mph - N/A   Clear
8:51 AM 82.0 °F 88.6 °F 75.0 °F 79% 30.12 in 9.0 mi WSW 6.9 mph - N/A   Clear
9:51 AM 82.9 °F 90.2 °F 75.0 °F 77% 30.12 in 8.0 mi West 6.9 mph - N/A   Clear
10:51 AM 84.0 °F 92.6 °F 75.9 °F 76% 30.11 in 9.0 mi West 9.2 mph - N/A   Clear
11:51 AM 84.9 °F 93.3 °F 75.0 °F 72% 30.11 in 10.0 mi West 10.4 mph - N/A   Clear
12:51 PM 86.0 °F 95.1 °F 75.0 °F 70% 30.11 in 10.0 mi West 10.4 mph - N/A   Clear
1:51 PM 84.9 °F 92.1 °F 73.9 °F 69% 30.09 in 10.0 mi West 12.7 mph - N/A   Clear
2:51 PM 87.1 °F 93.6 °F 72.0 °F 61% 30.07 in 10.0 mi West 10.4 mph 16.1 mph N/A   Clear
3:51 PM 86.0 °F 93.0 °F 73.0 °F 65% 30.06 in 10.0 mi West 10.4 mph - N/A   Clear
4:51 PM 86.0 °F 91.5 °F 71.1 °F 61% 30.04 in 10.0 mi West 9.2 mph - N/A   Clear
5:51 PM 86.0 °F 91.5 °F 71.1 °F 61% 30.04 in 10.0 mi WSW 10.4 mph - N/A   Clear
6:51 PM 86.0 °F 90.7 °F 70.0 °F 59% 30.03 in 10.0 mi SW 4.6 mph - N/A   Clear
7:51 PM 86.0 °F 90.7 °F 70.0 °F 59% 30.01 in 10.0 mi WSW 4.6 mph - N/A   Clear
8:51 PM 82.9 °F 87.5 °F 71.1 °F 67% 29.99 in 10.0 mi South 3.5 mph - N/A   Clear
9:51 PM 81.0 °F 84.9 °F 71.1 °F 72% 29.99 in 10.0 mi South 5.8 mph - N/A   Clear
10:51 PM 80.1 °F 83.2 °F 70.0 °F 71% 29.99 in 10.0 mi South 5.8 mph - N/A   Clear
11:51 PM 80.1 °F 82.9 °F 69.1 °F 69% 29.99 in 10.0 mi South 4.6 mph - N/A   Clear